Lapse_Rate
5.2 4.9 4.5 4.1 6.4 6.5 6.5 6.5 6.5 6.6 6.5 6.1 6.1 6.4 6.4 6.7 6.5 6.5 4.4 4.8 4.2 4.2 4.9 5.7 6.2 6.2 6.2 6.0 6.0 6.0 5.8 5.8 5.8 5.9 6.1 6.0 5.9 5.8 5.8 5.8 6.1 6.5 6.5 6.4 6.4 6.5 6.4 6.2 6.0
4.5 5.3 4.0 4.3 6.5 6.5 6.5 6.5 6.5 6.5 6.8 5.6 6.2 6.4 6.3 6.5 6.6 5.5 5.0 4.5 4.4 3.9 4.5 5.3 5.8 6.0 6.2 6.2 6.2 6.1 6.0 5.9 6.0 6.2 6.2 6.0 5.8 5.7 5.9 6.3 6.4 6.4 6.8 6.7 6.8 6.4 6.2 6.3 6.2
4.9 5.9 4.7 6.5 6.5 6.5 6.5 6.5 6.5 6.8 6.4 6.6 6.7 7.0 6.7 6.8 6.9 5.8 4.7 3.9 4.0 3.9 4.5 5.5 6.0 6.0 6.1 6.2 6.1 6.3 6.2 6.3 6.2 6.1 6.5 6.0 5.8 6.1 6.2 6.4 6.3 6.6 6.8 6.6 6.1 6.4 6.5 6.6 6.6
5.4 4.2 4.5 6.5 6.5 6.5 6.5 6.5 6.6 6.5 6.8 6.9 6.6 6.5 6.8 7.6 7.0 5.3 4.4 4.2 3.5 3.6 4.5 6.1 6.9 6.2 6.1 6.2 6.2 6.4 6.3 6.2 6.4 6.4 6.3 6.4 6.5 6.4 6.4 6.5 6.5 6.4 6.4 6.0 6.3 6.6 6.7 6.8 6.8
3.8 4.5 6.5 6.5 6.5 6.5 6.5 6.7 6.9 6.5 6.6 6.9 6.5 6.5 6.8 7.3 5.3 4.5 4.0 4.2 3.6 3.4 4.7 6.1 6.6 6.5 6.5 6.6 6.5 6.4 6.7 6.5 6.3 6.2 6.5 6.5 6.6 6.7 6.7 6.5 6.6 6.6 5.8 6.1 6.5 6.7 7.0 6.7 6.7
4.1 5.5 6.5 6.5 6.5 6.5 6.5 7.0 7.0 6.6 6.6 6.9 6.6 6.3 6.3 6.0 4.9 4.2 4.2 3.9 4.1 3.6 4.9 6.2 6.8 6.3 6.5 6.5 6.6 6.8 6.6 6.4 6.4 6.3 6.3 6.5 6.6 6.6 6.9 6.9 6.4 6.1 5.8 6.2 6.5 6.4 6.4 6.3 6.5
6.1 6.5 6.5 6.5 6.5 6.5 6.5 6.9 6.7 6.5 6.7 6.6 6.7 6.5 6.5 5.8 5.3 4.5 4.2 4.2 4.2 4.1 4.4 5.4 6.3 6.4 6.8 6.7 6.7 6.6 6.5 6.4 6.3 6.4 6.5 6.7 6.7 6.5 6.7 6.5 6.4 6.0 6.1 6.1 6.3 6.2 6.3 6.6 6.4
4.5 6.5 6.5 6.5 6.5 6.5 6.6 6.9 7.3 6.7 6.6 7.1 6.0 6.4 6.0 5.5 5.5 4.7 4.5 4.5 4.4 4.0 3.9 3.6 4.6 5.6 5.6 6.4 6.8 6.7 6.4 6.5 6.4 6.5 6.5 6.3 6.5 6.8 6.6 6.1 6.1 6.1 6.3 6.4 6.1 6.2 6.4 6.3 6.1
5.3 6.5 6.5 6.6 6.5 6.5 6.8 6.6 7.2 7.2 7.1 7.2 7.0 4.9 4.4 5.3 5.4 4.9 4.6 4.8 4.6 4.7 3.9 4.0 3.4 3.2 4.4 4.8 6.5 6.7 6.6 6.5 6.5 6.4 6.3 5.9 5.5 5.8 5.3 5.5 5.8 6.1 5.8 5.9 5.9 5.9 5.9 5.6 5.0
6.1 6.5 6.5 6.5 6.5 6.5 6.6 6.6 6.9 6.5 6.8 6.7 5.7 4.5 4.8 5.3 5.3 4.6 4.5 4.5 4.6 4.1 3.9 3.6 3.4 3.3 3.8 4.0 3.9 4.1 4.3 4.1 3.9 4.3 4.2 4.6 4.6 5.2 5.2 5.1 5.9 6.3 5.7 5.2 5.4 5.4 5.5 4.8 4.2
6.4 6.5 6.5 6.6 6.4 6.4 6.5 6.6 7.3 6.6 6.5 5.9 5.9 4.4 4.9 4.8 4.8 4.6 4.4 4.3 3.8 3.7 3.7 3.3 3.3 3.5 3.6 3.7 3.6 3.3 3.7 3.7 3.9 4.0 3.9 4.1 4.2 3.8 3.8 3.9 4.0 4.2 4.1 3.5 4.0 4.1 4.5 4.0 3.3
6.5 6.6 6.7 6.6 6.4 6.3 6.5 5.7 6.8 6.6 6.0 5.9 5.2 3.9 4.3 4.5 4.1 4.1 3.8 3.5 3.3 3.3 3.3 3.3 3.3 3.3 3.7 4.2 3.5 3.5 3.7 3.8 3.5 3.7 4.1 4.0 3.5 3.4 3.5 3.1 3.6 3.6 3.6 3.2 3.6 3.1 3.4 3.7 3.5
6.5 6.5 6.7 6.5 6.5 6.1 6.1 6.4 6.6 6.7 7.1 5.9 5.6 5.3 4.6 4.2 4.2 4.6 3.9 3.2 3.0 3.1 3.2 3.0 3.1 3.4 3.4 3.8 3.6 3.5 3.5 3.5 3.8 4.0 3.7 3.9 2.9 3.2 3.1 3.2 3.4 3.3 3.5 3.3 2.8 2.5 2.9 3.2 3.1
6.5 6.5 6.3 6.5 6.4 6.6 6.5 6.5 6.7 6.3 6.7 6.5 6.0 5.1 4.6 4.4 4.3 4.2 3.8 2.9 2.6 3.1 3.1 2.8 3.3 3.4 3.6 3.6 3.6 3.1 3.1 3.2 4.0 4.0 3.3 3.4 3.2 3.4 3.0 2.8 2.9 3.0 3.1 2.9 2.3 2.4 2.4 3.0 2.6
6.3 6.5 6.5 6.5 6.5 6.4 6.1 6.5 6.5 5.2 6.5 6.8 6.4 5.2 5.3 5.3 4.8 3.9 3.8 3.0 2.4 2.7 2.7 2.7 3.0 3.1 3.3 3.3 3.3 2.9 3.3 3.4 3.6 3.5 3.4 3.0 2.9 3.0 2.9 2.7 2.7 2.8 2.7 2.7 2.8 2.7 2.4 3.0 2.7
6.5 6.5 6.4 6.5 6.5 6.4 6.4 6.5 6.5 4.9 5.0 6.0 7.0 6.0 6.3 5.6 5.0 4.6 4.2 3.6 2.6 2.5 2.4 2.5 4.8 2.9 2.5 2.4 2.6 3.0 3.1 3.6 3.8 3.4 3.5 3.2 3.0 2.8 2.7 2.7 2.4 2.7 2.4 2.8 2.7 2.5 3.0 2.4 2.2
6.6 6.5 6.5 6.5 6.5 6.5 6.5 6.5 6.3 5.4 5.5 5.4 6.7 6.8 6.5 5.5 5.6 4.7 4.6 3.7 2.8 2.3 2.4 2.2 2.6 2.3 2.1 1.8 2.0 2.4 2.9 3.1 3.4 3.3 3.0 3.0 3.1 2.8 2.5 2.3 2.0 2.4 2.0 2.4 2.6 2.1 2.4 2.2 2.0
6.5 6.5 6.5 6.5 6.5 6.5 6.5 6.5 6.5 5.8 6.2 6.2 6.2 5.2 5.3 5.9 5.3 4.9 4.6 4.2 3.0 2.3 2.2 2.4 2.2 1.7 1.6 1.4 1.6 2.0 2.3 2.6 2.6 2.7 2.6 2.5 2.6 2.7 2.4 2.1 1.8 2.0 2.1 2.6 2.1 2.5 1.9 2.1 2.2
6.5 6.5 6.5 6.5 6.5 6.5 6.5 6.4 6.5 6.0 5.9 5.7 5.0 4.7 4.7 4.8 5.4 4.8 3.9 4.4 3.2 2.5 2.1 2.3 1.7 1.2 1.2 1.3 1.7 2.2 2.4 2.5 2.4 2.2 2.6 2.1 2.2 2.8 2.4 2.1 1.6 1.8 2.6 2.5 2.6 2.5 2.9 2.3 1.6
6.5 6.5 6.5 6.5 6.5 6.5 6.5 6.5 6.5 6.4 6.3 6.0 5.6 5.6 4.9 4.1 3.4 3.4 3.3 4.1 3.0 2.6 2.3 2.3 2.0 0.9 1.0 1.1 1.6 2.1 2.3 2.5 2.7 2.5 2.4 2.0 2.0 2.4 2.3 1.9 1.5 2.1 2.5 3.1 2.7 2.7 2.5 2.1 1.4
6.5 6.5 6.5 6.5 6.5 6.5 6.5 6.5 6.5 6.5 6.1 6.1 5.5 5.6 5.1 4.0 3.2 2.8 2.7 3.1 3.4 2.8 2.2 2.4 1.8 1.4 1.3 1.2 1.8 2.1 2.4 2.3 2.6 2.2 2.0 1.6 2.1 2.4 2.3 2.2 1.7 2.1 2.8 3.4 3.0 3.0 2.9 2.7 1.8
6.5 6.5 6.5 6.5 6.5 6.5 6.5 6.5 6.5 6.5 6.5 6.5 6.6 6.1 5.6 5.0 3.9 2.7 2.5 2.7 3.2 3.1 3.0 2.6 2.1 1.8 1.5 1.2 2.0 2.7 2.6 2.8 2.5 2.7 2.2 2.0 2.3 2.5 2.5 1.7 1.7 2.9 2.8 2.9 3.0 3.1 2.3 2.2 3.4
6.5 6.5 6.5 6.5 6.5 6.4 6.5 6.5 6.5 6.5 6.5 6.5 6.4 6.4 5.8 6.0 4.5 3.3 3.1 3.0 3.3 3.6 2.9 2.9 1.9 1.9 1.9 1.5 2.0 2.7 2.9 3.0 2.9 2.4 2.4 2.2 2.0 2.4 2.8 2.8 2.9 2.6 3.0 3.3 3.5 3.1 2.3 2.2 2.6
6.5 6.5 6.5 6.5 6.5 6.5 6.5 6.5 6.5 6.5 6.5 6.6 6.3 6.5 6.5 5.5 4.5 3.5 3.4 4.0 2.9 3.2 3.2 2.9 2.1 1.9 2.4 2.0 1.9 2.4 3.0 2.8 3.0 2.4 2.3 2.2 2.3 2.2 2.4 2.9 2.7 2.9 2.8 3.2 3.7 3.7 3.5 3.3 2.9
6.5 6.5 6.5 6.5 6.5 6.5 6.5 6.5 6.5 6.5 6.5 6.5 6.4 6.3 6.7 6.1 5.0 3.0 2.9 3.6 3.3 2.5 2.5 2.6 2.2 2.4 2.5 2.3 2.2 2.4 2.5 2.6 3.0 3.0 2.6 2.4 2.5 2.6 2.9 2.6 2.7 2.7 2.9 3.3 3.6 3.5 3.6 3.7 3.4
6.6 6.5 6.5 6.5 6.5 6.6 6.5 6.5 6.5 6.5 5.9 5.1 4.6 5.8 6.5 6.1 4.9 3.7 3.1 3.7 3.6 2.7 2.3 3.1 2.8 2.3 2.5 2.4 2.7 2.6 2.4 2.6 2.7 2.9 3.0 3.0 3.0 3.2 3.1 2.9 3.0 3.2 3.6 3.9 4.1 4.0 4.0 3.9 4.1
6.5 6.5 6.5 6.5 6.5 6.5 6.5 6.5 6.5 6.5 6.5 6.3 5.6 4.9 6.1 6.1 4.6 3.4 3.4 3.2 3.3 2.6 2.4 2.9 2.6 2.3 2.5 2.5 2.5 2.7 3.3 3.0 3.4 2.9 3.2 3.7 3.0 3.7 3.3 3.1 3.2 3.7 3.7 4.0 4.1 3.7 3.3 3.6 4.0
6.5 6.5 6.5 6.5 6.4 6.5 6.5 6.5 6.5 6.6 6.5 6.5 6.4 5.5 5.1 5.7 4.7 4.0 3.3 3.2 3.5 3.3 2.7 3.0 2.7 2.5 1.8 2.2 2.7 3.5 3.5 3.3 3.3 2.9 3.3 3.2 3.6 3.3 3.4 2.9 3.1 3.7 3.9 3.8 3.6 3.7 3.5 3.4 3.9
6.5 6.5 6.5 6.5 6.5 6.5 6.5 6.5 6.5 6.5 6.5 6.5 6.3 4.8 3.8 4.5 4.2 3.9 3.2 2.5 2.7 2.6 1.5 3.0 2.2 2.1 1.9 2.4 2.4 3.6 3.6 3.2 3.1 3.7 3.0 3.2 3.1 3.0 3.1 3.2 3.0 3.3 3.7 3.8 2.9 3.0 3.4 3.7 4.0
6.5 6.5 6.5 6.5 6.5 6.4 6.5 6.5 6.5 6.5 6.5 5.8 5.4 4.1 3.0 3.0 3.1 2.9 1.9 1.2 1.1 1.1 1.2 1.5 1.5 1.2 1.4 1.6 1.9 3.0 3.4 3.5 3.5 3.5 3.2 2.9 3.1 3.0 3.2 3.1 3.3 3.0 3.1 3.2 3.4 3.6 3.3 3.7 3.8
Wind_Speed
6 6 2 2 3 2 3 6 4 3 3 3 2 2 4 4 1 3 2 4 11 10 11 12 13 11 10 9 9 9 10 10 10 11 13 13 13 14 14 14 14 14 14 15 14 13 12 12 12
6 4 3 1 4 3 2 4 12 4 6 9 6 3 4 2 2 5 4 4 9 11 12 12 14 12 9 10 10 9 10 10 10 10 12 13 12 14 13 13 13 13 14 15 14 13 13 12 11
6 2 3 3 3 2 2 6 5 8 7 2 4 4 2 2 5 8 3 7 9 7 11 12 14 12 10 9 9 9 10 11 11 11 12 12 13 14 13 12 13 13 15 14 12 13 11 10 8
3 2 3 4 3 0 2 5 3 4 5 8 6 5 3 3 6 5 8 7 8 6 10 10 13 12 10 10 10 10 9 10 11 11 12 13 13 13 13 12 14 14 15 12 11 10 8 8 7
2 1 4 4 2 2 3 3 1 4 2 3 1 3 3 1 8 11 9 7 8 6 8 9 12 11 10 10 11 11 11 12 11 11 12 14 14 14 13 14 13 14 13 11 9 8 7 6 6
3 2 3 4 2 2 3 6 5 2 4 3 5 4 1 3 10 6 7 6 6 6 7 8 12 10 9 10 9 11 11 13 13 13 13 14 13 13 13 13 13 11 10 9 8 7 7 7 5
4 3 2 3 3 3 4 8 4 3 6 1 5 3 2 3 6 8 7 6 5 6 4 7 9 11 9 7 12 8 10 11 11 12 13 14 13 13 12 11 10 9 8 9 9 9 7 6 5
3 2 2 3 4 3 4 5 1 3 2 5 7 5 5 5 8 8 7 6 5 5 5 4 8 6 6 6 11 11 10 10 11 12 12 13 12 11 11 10 8 8 6 8 8 7 7 6 6
0 3 2 3 3 5 3 6 2 6 9 1 2 4 5 13 11 7 6 4 4 4 4 6 6 5 5 5 8 10 10 12 11 10 12 8 7 9 10 8 7 6 5 5 5 6 5 4 4
2 1 3 4 5 4 5 2 3 3 3 3 3 9 13 13 10 9 7 5 5 4 3 4 4 5 6 5 10 9 9 9 8 11 9 9 6 7 6 4 5 3 2 3 4 3 3 3 3
3 3 2 2 6 9 4 4 2 4 6 5 8 12 13 11 8 8 6 6 6 4 4 5 5 7 6 7 9 10 8 9 10 10 8 8 6 5 6 4 5 4 5 5 6 6 5 5 6
2 5 1 3 6 6 6 5 4 7 5 5 7 13 12 11 9 8 7 6 5 5 5 4 6 5 7 7 7 9 7 7 7 7 9 4 5 4 4 3 1 2 2 3 5 5 6 6 5
3 2 5 5 7 5 7 5 3 8 10 9 11 11 10 8 7 5 5 6 6 5 5 5 5 5 5 6 6 7 6 6 6 6 6 5 3 3 3 2 1 1 1 2 5 6 6 4 2
2 5 5 4 5 5 4 3 2 1 3 13 14 10 8 8 8 5 7 7 7 6 6 6 5 6 7 3 5 5 7 8 6 4 4 3 3 3 3 2 3 1 3 4 4 4 5 3 1
3 4 4 4 3 4 6 1 3 1 7 11 12 9 8 8 8 10 10 9 10 6 6 7 6 6 4 5 5 5 6 5 3 4 4 3 2 4 4 3 3 1 3 3 3 2 1 2 0
3 4 2 1 2 0 4 5 4 7 9 5 10 10 10 10 12 10 8 6 8 7 8 7 7 6 6 5 6 5 4 4 3 2 4 2 1 4 4 3 2 1 3 2 4 3 2 3 1
6 1 2 3 2 3 4 4 6 6 8 10 10 10 11 10 10 11 9 8 9 9 8 8 7 7 6 6 6 7 8 6 5 3 5 4 3 4 4 3 3 0 2 3 2 2 2 2 3
2 1 3 4 4 2 4 5 5 6 5 9 11 8 7 13 16 14 13 10 9 9 9 7 6 6 6 3 3 3 3 5 7 7 7 6 5 4 5 2 4 1 0 2 2 3 4 2 2
4 3 5 3 4 4 7 6 9 11 7 8 8 8 8 12 15 15 13 12 9 9 10 10 9 7 6 3 3 2 3 2 2 6 10 8 8 7 4 2 4 2 1 1 1 1 3 3 1
4 4 4 3 3 3 4 11 6 11 12 14 12 11 11 6 6 9 11 12 13 11 10 9 10 8 7 3 2 3 3 2 2 4 7 8 9 10 8 5 3 4 3 3 2 2 1 2 1
4 5 5 4 3 4 2 5 7 7 10 10 11 11 9 10 11 9 12 14 11 12 13 12 11 9 8 6 3 2 3 2 2 2 2 5 10 10 8 5 7 4 3 2 2 2 3 3 1
7 10 8 8 5 3 1 5 5 6 13 15 15 14 13 9 5 6 10 11 13 14 11 11 10 10 9 8 6 5 4 4 3 3 3 4 10 8 7 8 10 5 3 3 3 3 2 3 2
11 6 7 4 4 3 2 1 6 3 7 15 16 17 16 13 14 10 12 14 13 11 12 12 9 9 8 10 8 6 4 3 2 2 3 3 3 7 8 8 7 4 3 2 3 2 3 2 2
4 7 9 6 3 2 5 6 6 5 8 7 14 17 19 15 13 10 11 12 11 8 9 8 10 10 10 10 10 10 9 6 4 3 4 4 3 3 8 8 7 6 3 3 2 2 3 3 2
6 6 3 3 1 6 2 4 10 7 8 8 17 18 17 16 14 9 12 13 13 13 13 11 8 11 10 10 9 10 9 7 7 6 5 5 4 3 7 7 5 3 6 6 4 3 3 3 3
6 8 6 7 5 5 3 5 7 5 4 6 6 12 14 15 11 13 15 15 15 16 15 15 15 13 11 12 12 10 9 6 5 5 4 4 4 5 4 5 7 9 9 7 6 3 3 4 4
5 3 5 7 3 2 3 7 11 5 1 2 6 7 14 15 14 15 13 14 14 14 16 17 18 16 13 13 11 11 10 8 8 7 5 5 5 5 5 6 6 7 7 8 6 4 4 4 3
7 8 3 3 4 4 6 5 6 12 4 4 5 7 9 11 11 9 11 14 13 13 13 16 15 17 16 13 11 11 11 9 8 6 8 8 8 7 5 6 7 6 7 7 7 5 4 4 3
2 2 6 5 4 6 2 6 7 10 7 9 8 7 8 10 11 11 9 10 11 10 11 14 11 13 12 14 12 12 10 9 9 8 8 8 7 6 7 8 8 8 8 7 7 6 5 6 5
4 6 6 5 5 1 4 6 2 7 6 8 9 8 7 7 8 7 8 8 9 9 10 12 11 11 12 11 10 11 8 7 9 9 9 9 9 6 7 6 7 7 8 7 8 9 8 8 7
Wind_Direction
144 148 133 48 52 75 50 358 357 69 84 349 97 145 127 31 154 203 70 137 131 135 143 148 150 148 144 141 133 125 124 125 126 124 123 118 119 114 110 107 113 114 110 107 106 105 106 105 102
160 171 50 101 72 57 55 324 14 26 98 104 86 78 58 99 67 112 112 148 129 133 137 145 158 149 152 144 134 137 138 136 128 126 129 127 125 118 114 116 113 107 111 109 111 105 103 105 108
177 204 79 80 65 81 84 350 18 123 144 78 108 58 78 99 108 140 134 121 109 115 138 155 150 149 152 141 136 151 148 135 131 125 136 136 133 128 125 123 113 117 110 108 108 109 116 119 115
186 34 46 74 96 88 72 317 5 190 98 71 107 75 68 226 145 148 124 117 106 112 142 162 145 150 151 152 151 156 147 137 129 132 132 134 132 129 132 124 116 115 107 107 113 122 132 127 116
64 53 88 89 114 115 310 300 328 342 86 55 48 86 70 90 102 126 123 123 123 128 145 156 151 152 159 156 162 152 146 139 131 137 137 135 138 138 134 123 122 110 109 116 126 132 136 120 94
50 73 46 121 54 3 283 11 337 45 79 123 86 85 131 117 125 122 116 120 119 134 146 157 152 149 154 162 153 147 144 134 139 146 140 137 139 139 131 126 121 118 119 125 132 134 126 113 86
100 65 54 128 144 84 9 353 334 121 110 68 120 83 86 119 123 123 119 114 108 108 135 139 149 154 166 167 132 159 136 132 136 134 141 137 139 135 128 127 121 120 127 133 139 135 134 119 100
93 79 100 208 153 111 2 337 263 137 67 101 153 170 185 177 137 110 98 98 107 108 113 119 112 125 143 149 142 142 142 139 143 142 140 137 140 128 122 107 116 116 126 130 136 135 125 108 106
214 54 339 317 144 161 126 40 109 18 134 220 146 129 152 139 122 111 107 95 109 117 124 118 114 99 125 129 157 143 152 145 143 146 137 128 122 117 112 105 114 113 121 122 121 100 91 107 74
83 87 220 192 164 126 116 71 18 90 115 27 51 85 122 136 140 148 149 153 154 150 133 124 118 129 124 121 114 105 106 101 96 101 105 94 92 105 106 109 115 101 58 54 38 48 48 36 56
180 203 213 141 144 136 125 90 13 125 206 188 182 145 144 145 150 162 158 170 175 162 152 158 144 134 133 119 118 117 116 113 99 101 106 90 82 78 82 71 54 41 28 27 11 356 355 349 22
190 264 53 84 135 118 150 128 95 172 210 172 163 152 149 162 169 175 167 170 163 165 164 160 142 136 131 132 129 133 129 117 109 116 119 121 102 106 113 102 85 64 10 32 329 317 313 332 351
233 327 62 86 116 119 128 182 139 210 232 131 142 160 169 166 169 176 161 154 153 176 166 165 162 156 147 138 129 130 128 131 135 136 126 128 121 126 135 132 121 232 353 285 274 280 292 301 327
85 68 111 76 109 130 140 155 157 332 165 150 163 177 173 183 175 159 173 175 173 164 176 158 180 176 162 142 138 153 145 147 149 122 155 141 154 165 158 172 120 47 342 314 286 272 269 292 76
52 75 37 57 134 139 125 139 143 194 107 162 175 184 184 196 180 197 201 184 171 177 168 170 182 174 165 166 155 158 159 189 145 137 133 107 184 197 159 177 143 227 341 320 11 53 344 333 54
58 60 30 308 242 317 128 226 202 185 137 223 196 196 197 203 208 204 199 185 158 158 180 169 191 178 177 166 154 170 192 222 202 172 186 209 275 238 188 169 176 170 340 29 54 22 12 26 87
23 184 254 295 212 136 163 228 217 190 185 206 192 205 208 215 208 213 200 182 168 172 172 177 184 178 178 166 170 184 191 199 217 200 214 217 225 249 241 163 159 133 349 54 77 55 50 41 88
201 244 236 231 213 186 175 258 173 223 223 236 205 192 212 213 214 208 198 179 165 167 168 176 186 179 168 149 158 186 200 206 213 227 242 241 201 217 244 238 159 130 291 59 72 86 48 59 109
117 201 251 228 194 157 209 214 194 202 220 232 227 226 233 215 216 206 192 176 160 164 165 183 183 180 160 153 156 174 199 189 240 224 233 233 198 208 219 250 158 150 212 111 85 103 86 55 53
205 213 248 280 165 152 240 244 241 192 218 215 221 219 230 206 182 175 172 180 176 173 176 180 204 176 179 172 170 158 161 188 196 207 223 226 191 201 221 213 204 186 237 113 145 161 117 97 10
233 193 200 209 108 220 200 260 207 211 222 221 222 225 226 213 189 177 172 183 182 179 186 186 201 200 182 170 148 107 102 103 146 215 210 197 194 197 214 234 221 220 229 144 140 179 154 145 23
272 202 210 161 125 219 215 276 271 208 219 218 219 218 220 206 193 187 173 178 191 200 188 179 187 203 191 171 173 172 174 169 197 194 223 171 188 202 208 233 215 202 205 169 167 173 144 135 181
241 175 194 137 120 73 255 21 267 128 242 226 218 219 215 206 189 189 189 190 201 191 191 187 174 200 199 183 190 191 180 210 164 164 209 209 185 211 220 224 215 212 224 205 183 155 157 184 157
127 69 45 50 56 321 214 166 280 194 214 212 212 214 212 200 191 193 191 192 191 186 181 180 176 197 205 189 190 189 197 189 181 174 189 210 189 198 229 220 217 229 245 238 244 227 192 212 217
84 76 22 5 27 231 144 122 242 243 233 220 205 208 208 198 195 170 174 194 189 187 183 179 170 206 196 206 195 198 205 198 196 193 191 179 206 197 211 204 212 214 225 234 228 201 207 212 222
179 154 160 202 200 250 202 232 248 223 226 216 209 210 197 200 184 182 186 196 195 191 184 173 190 209 205 200 207 205 205 202 196 197 200 205 201 219 199 208 203 205 216 221 216 211 213 204 226
187 155 177 103 6 69 240 292 307 259 341 179 194 159 187 195 196 188 186 188 194 193 188 179 194 212 203 203 205 209 209 201 199 197 195 212 211 218 216 192 207 218 206 208 205 203 206 195 209
166 154 79 13 134 231 287 272 244 281 199 217 181 191 187 191 195 193 191 190 198 197 190 194 193 195 201 198 200 209 208 201 204 185 197 201 218 225 213 203 202 215 216 209 202 212 215 203 210
145 173 54 119 130 165 235 268 222 255 195 198 197 203 186 189 198 195 190 190 192 189 181 195 191 185 189 195 198 206 208 195 199 202 203 206 219 200 218 213 211 212 220 210 199 217 214 212 217
194 176 139 126 222 181 164 272 251 258 237 182 194 184 200 188 186 183 161 164 173 184 189 193 186 189 195 191 192 198 204 192 201 206 202 197 209 210 215 214 217 221 222 212 204 218 212 211 210